This demonstration page uses our WeatherBlox Daily Observations layout. Learn more.

Left ArrowRight Arrow

34.74481, -87.66753

Hourly Observations for February 15, 2020

Temp ( °F °C ) Dew Point ( °F °C ) Humidity (%) Winds ( mph kmh ) Pressure ( in mb ) Visibility ( mi km ) Precip ( " mm )
12:53 am 00:53 Clear 30 -1.1 19 -7.2 64 64 ENE 5 7 30.46 1032 10 16 0.00 0.00
1:53 am 01:53 Clear 28 -2.2 19 -7.2 69 69 ENE 6 9 30.45 1031 10 16 0.00 0.00
2:53 am 02:53 Clear 28 -2.2 18 -7.8 66 66 Calm 30.45 1031 10 16 0.00 0.00
3:53 am 03:53 Clear 25 -3.9 19 -7.2 78 78 ESE 5 7 30.44 1031 10 16 0.00 0.00
4:53 am 04:53 Clear 26 -3.3 19 -7.2 75 75 Calm 30.43 1031 10 16 0.00 0.00
5:53 am 05:53 Clear 25 -3.9 20 -6.7 81 81 E 5 7 30.44 1031 10 16 0.00 0.00
6:53 am 06:53 Sunny 27 -2.8 22 -5.6 81 81 Calm 30.45 1031 10 16 0.00 0.00
7:53 am 07:53 Sunny 31 -0.6 23 -5 72 72 ESE 6 9 30.45 1031 10 16 0.00 0.00
8:53 am 08:53 Sunny 36 2.2 25 -3.9 64 64 ESE 7 11 30.45 1031 10 16 0.00 0.00
9:53 am 09:53 Sunny 42 5.6 26 -3.3 53 53 ESE 9 15 30.43 1030 10 16 0.00 0.00
10:53 am 10:53 Sunny 47 8.3 25 -3.9 42 42 SE 7 11 30.42 1030 10 16 0.00 0.00
11:53 am 11:53 Sunny 51 10.6 23 -5 33 33 SSW 7 11 30.39 1029 10 16 0.00 0.00
12:53 pm 12:53 Sunny 54 12.2 23 -5 30 30 S 8 13 30.35 1028 10 16 0.00 0.00
1:53 pm 13:53 Sunny 57 13.9 23 -5 27 27 SSW 8 13 30.30 1026 10 16 0.00 0.00
2:53 pm 14:53 Sunny 58 14.4 24 -4.4 27 27 SSE 8 13 30.27 1025 10 16 0.00 0.00
3:53 pm 15:53 Sunny 58 14.4 26 -3.3 29 29 SSE 9 15 30.26 1025 10 16 0.00 0.00
4:53 pm 16:53 Sunny 55 12.8 28 -2.2 35 35 SSE 7 11 30.24 1024 10 16 0.00 0.00
5:53 pm 17:53 Clear 52 11.1 28 -2.2 40 40 SSE 5 7 30.24 1024 10 16 0.00 0.00
6:53 pm 18:53 Mostly Cloudy 51 10.6 27 -2.8 39 39 S 5 7 30.24 1024 10 16 0.00 0.00
7:53 pm 19:53 Cloudy 50 10 30 -1.1 46 46 SE 5 7 30.24 1024 10 16 0.00 0.00
8:53 pm 20:53 Cloudy 51 10.6 28 -2.2 41 41 SSE 8 13 30.24 1024 10 16 0.00 0.00
9:53 pm 21:53 Cloudy 49 9.4 31 -0.6 50 50 SSE 5 7 30.23 1024 10 16 0.00 0.00
10:53 pm 22:53 Cloudy 48 8.9 31 -0.6 52 52 E 3 6 30.23 1024 10 16 0.00 0.00
11:53 pm 23:53 Cloudy 47 8.3 31 -0.6 54 54 ESE 6 9 30.20 1023 10 16 0.00 0.00

Powered by AerisWeather